This demonstration page uses our WeatherBlox Daily Observations layout. Learn more.

Left ArrowRight Arrow

34.02893, -84.19858

Hourly Observations for October 19, 2019

Temp ( °F °C ) Dew Point ( °F °C ) Humidity (%) Winds ( mph kmh ) Pressure ( in mb ) Visibility ( mi km ) Precip ( " mm )
12:53 am 00:53 Clear 56 13.3 43 6.1 62 62 E 3 6 29.97 1015 10 16 0.00 0.00
1:53 am 01:53 Clear 56 13.3 43 6.1 62 62 VRB 6 9 29.97 1015 10 16 0.00 0.00
2:53 am 02:53 Partly Cloudy 57 13.9 43 6.1 60 60 VRB 3 6 29.95 1014 10 16 0.00 0.00
3:53 am 03:53 Mostly Cloudy 57 13.9 44 6.7 62 62 VRB 5 7 29.93 1014 10 16 0.00 0.00
4:53 am 04:53 Cloudy 57 13.9 44 6.7 62 62 VRB 5 7 29.93 1014 10 16 0.00 0.00
5:17 am 05:17 Cloudy 57 13.9 44 6.7 62 62 ENE 7 11 29.94 1014 10 16 0.00 0.00
5:53 am 05:53 Cloudy 57 13.9 44 6.7 62 62 VRB 7 11 29.93 1013 10 16 0.00 0.00
6:53 am 06:53 Cloudy 55 12.8 46 7.8 72 72 VRB 7 11 29.93 1014 10 16 0.00 0.00
7:12 am 07:12 Cloudy 55 12.8 46 7.8 72 72 VRB 5 7 29.95 1014 10 16 0.00 0.00
7:53 am 07:53 Cloudy with Light Rain 54 12.2 46 7.8 75 75 VRB 5 7 29.96 1014 10 16 0.00 0.00
8:53 am 08:53 Cloudy with Light Rain 53 11.7 47 8.3 80 80 ENE 9 15 29.96 1015 10 16 0.00 0.00
9:53 am 09:53 Cloudy with Light Rain 51 10.6 49 9.4 92 92 VRB 7 11 29.98 1015 6 10 0.03 0.76
10:39 am 10:39 Cloudy with Light Rain 51 10.6 49 9.4 92 92 VRB 7 11 29.99 1016 3 4 0.02 0.51
10:42 am 10:42 Cloudy with Light Rain 51 10.6 49 9.4 92 92 VRB 5 7 29.99 1016 3 5 0.02 0.51
10:53 am 10:53 Cloudy with Light Rain 51 10.6 49 9.4 92 92 ENE 9 15 29.98 1015 3 5 0.03 0.76
11:03 am 11:03 Cloudy with Light Rain 51 10.6 49 9.4 92 92 ENE 8 13 29.98 1015 3 4 0.00 0.00
11:11 am 11:11 Cloudy with Light Rain 51 10.6 49 9.4 92 92 E 10 17 29.98 1015 3 5 0.00 0.00
11:26 am 11:26 Cloudy with Light Rain 51 10.6 50 10 96 96 VRB 6 9 29.98 1015 3 4 0.01 0.25
11:53 am 11:53 Cloudy with Light Rain 51 10.6 50 10 96 96 ENE 8 13 29.97 1015 2 3 0.03 0.76
12:10 pm 12:10 Cloudy with Rain 51 10.6 50 10 96 96 ENE 10 17 29.97 1015 2 2 0.03 0.76
12:35 pm 12:35 Cloudy with Rain 51 10.6 50 10 96 96 ENE 10 17 29.94 1014 3 4 0.10 2.54
12:48 pm 12:48 Cloudy with Light Rain 52 11 50 10 94 94 ENE 8 13 29.94 1014 4 6 0.12 3.05
12:53 pm 12:53 Cloudy with Light Rain 51 10.6 50 10 96 96 ENE 9 15 29.93 1014 5 8 0.12 3.05
1:44 pm 13:44 Cloudy with Rain 52 11.1 51 10.6 97 97 VRB 7 11 29.91 1013 2 3 0.06 1.52
1:53 pm 13:53 Cloudy with Rain 52 11.1 51 10.6 97 97 VRB 7 11 29.89 1012 3 4 0.08 2.03
2:02 pm 14:02 Cloudy with Rain 52 11.1 51 10.6 97 97 VRB 7 11 29.89 1012 3 5 0.02 0.51
2:24 pm 14:24 Cloudy with Rain 53 11.7 51 10.6 93 93 NE 12 19 29.85 1011 3 4 0.07 1.78
2:38 pm 14:38 Cloudy with Rain 53 11.7 51 10.6 93 93 NE 9 15 29.84 1011 3 5 0.11 2.79
2:45 pm 14:45 Cloudy with Rain 53 11.7 51 10.6 93 93 NE 8 13 29.83 1010 3 4 0.14 3.56
2:53 pm 14:53 Cloudy with Rain 53 11.7 51 10.6 93 93 VRB 6 9 29.83 1010 2 3 0.17 4.32
3:09 pm 15:09 Cloudy with Heavy Rain 53 11.7 52 11.1 96 96 NE 9 15 29.82 1010 1 2 0.10 2.54
3:35 pm 15:35 Cloudy with Light Rain 53 11.7 52 11.1 96 96 NE 8 13 29.80 1009 3 4 0.24 6.10
3:53 pm 15:53 Cloudy with Light Rain 53 11.7 52 11.1 96 96 NE 8 13 29.79 1009 2 3 0.28 7.11
4:05 pm 16:05 Cloudy with Light Rain 53 11.7 52 11.1 96 96 undefined N/A 29.80 1009 3 5 0.03 0.76
4:28 pm 16:28 Cloudy with Light Rain 53 11.7 52 11.1 96 96 VRB 7 11 29.79 1009 2 3 0.04 1.02
4:46 pm 16:46 Cloudy with Light Rain 53 11.7 52 11.1 96 96 VRB 5 7 29.79 1009 4 6 0.06 1.52
4:53 pm 16:53 Cloudy with Light Rain 53 11.7 52 11.1 96 96 VRB 7 11 29.79 1009 4 6 0.06 1.52
5:14 pm 17:14 Cloudy with Rain 53 11.7 51 10.6 93 93 VRB 5 7 29.79 1009 3 4 0.09 2.29
5:34 pm 17:34 Cloudy with Light Rain 52 11.1 51 10.6 97 97 NE 6 9 29.80 1009 4 6 0.15 3.81
5:53 pm 17:53 Cloudy with Rain 52 11.1 51 10.6 97 97 ENE 8 13 29.78 1008 3 5 0.20 5.08
6:22 pm 18:22 Cloudy with Rain 52 11.1 51 10.6 97 97 ENE 9 15 29.77 1008 4 6 0.08 2.03
6:42 pm 18:42 Cloudy with Light Rain 52 11.1 51 10.6 97 97 NNE 9 15 29.81 1009 5 8 0.12 3.05
6:53 pm 18:53 Cloudy with Light Rain 52 11.1 51 10.6 97 97 NNE 8 13 29.79 1009 8 13 0.13 3.30
7:14 pm 19:14 Cloudy with Light Rain 52 11.1 51 10.6 97 97 undefined N/A 29.79 1009 8 13 0.02 0.51
7:53 pm 19:53 Cloudy with Rain 52 11.1 51 10.6 97 97 NE 8 13 29.77 1008 6 10 0.13 3.30
8:53 pm 20:53 Cloudy 53 11.7 51 10.6 93 93 NE 9 15 29.78 1008 10 16 0.00 0.00
9:46 pm 21:46 Cloudy 54 12.2 52 11.1 93 93 NNE 9 15 29.77 1008 10 16 0.00 0.00
9:53 pm 21:53 Cloudy 54 12.2 52 11.1 93 93 NE 9 15 29.77 1008 10 16 0.00 0.00
10:33 pm 22:33 Cloudy 54 12.2 52 11.1 93 93 NE 7 11 29.77 1008 10 16 0.00 0.00
10:53 pm 22:53 Cloudy 54 12.2 52 11.1 93 93 NNE 10 17 29.77 1008 10 16 0.00 0.00
11:53 pm 23:53 Cloudy with Mist and Fog 55 12.8 53 11.7 93 93 NNE 9 15 29.75 1008 5 8 0.00 0.00

Powered by AerisWeather